Time,TemperatureF,DewpointF,PressureIn,WindDirection,WindDirectionDegrees,WindSpeedMPH,WindSpeedGustMPH,Humidity,HourlyPrecipIn,Conditions,Clouds,dailyrainin,SoftwareType,DateUTC
2013-12-11 00:02:00,34.3,-56.6,30.06,North,0,1.7,-999.0,1,-99.99,,,0.00,Acu-Link.com,2013-12-11 06:02:00,
2013-12-11 00:17:00,34.2,-56.7,30.06,North,0,2.7,-999.0,1,-99.99,,,0.00,Acu-Link.com,2013-12-11 06:17:00,
2013-12-11 00:32:00,34.0,-56.8,30.05,North,0,3.7,-999.0,1,-99.99,,,0.00,Acu-Link.com,2013-12-11 06:32:00,
2013-12-11 00:47:00,34.0,-56.8,30.05,NNE,22,1.7,-999.0,1,-99.99,,,0.00,Acu-Link.com,2013-12-11 06:47:00,
2013-12-11 01:02:00,34.0,-56.8,30.05,NNE,22,2.7,-999.0,1,-99.99,,,0.00,Acu-Link.com,2013-12-11 07:02:00,
2013-12-11 01:17:00,34.0,-56.8,30.05,WNW,292,2.7,-999.0,1,-99.99,,,0.00,Acu-Link.com,2013-12-11 07:17:00,
2013-12-11 01:33:00,33.8,-56.9,30.06,NNW,337,0.0,-999.0,1,-99.99,,,0.00,Acu-Link.com,2013-12-11 07:33:00,
2013-12-11 01:48:00,33.6,-57.1,30.06,NNW,337,0.0,-999.0,1,-99.99,,,0.00,Acu-Link.com,2013-12-11 07:48:00,
2013-12-11 02:03:00,33.4,-57.2,30.06,NNE,22,0.0,-999.0,1,-99.99,,,0.00,Acu-Link.com,2013-12-11 08:03:00,
2013-12-11 02:18:00,33.3,-57.3,30.06,NW,315,0.0,-999.0,1,-99.99,,,0.00,Acu-Link.com,2013-12-11 08:18:00,
2013-12-11 02:34:00,32.9,-57.5,30.07,WNW,292,0.0,-999.0,1,-99.99,,,0.00,Acu-Link.com,2013-12-11 08:34:00,
2013-12-11 02:49:00,32.7,-57.6,30.07,NNW,337,0.0,-999.0,1,-99.99,,,0.00,Acu-Link.com,2013-12-11 08:49:00,
2013-12-11 03:04:00,32.7,-57.6,30.07,NNW,337,1.7,-999.0,1,-99.99,,,0.00,Acu-Link.com,2013-12-11 09:04:00,
2013-12-11 03:19:00,32.9,-57.5,30.07,North,0,3.2,-999.0,1,-99.99,,,0.00,Acu-Link.com,2013-12-11 09:19:00,
2013-12-11 03:34:00,32.9,-57.5,30.07,North,0,0.0,-999.0,1,-99.99,,,0.00,Acu-Link.com,2013-12-11 09:34:00,
2013-12-11 03:50:00,32.9,-57.5,30.07,North,0,1.7,-999.0,1,-99.99,,,0.00,Acu-Link.com,2013-12-11 09:50:00,
2013-12-11 04:05:00,32.7,-57.6,30.07,North,0,2.7,-999.0,1,-99.99,,,0.00,Acu-Link.com,2013-12-11 10:05:00,
2013-12-11 04:20:00,32.5,-57.8,30.06,NNE,22,2.2,-999.0,1,-99.99,,,0.00,Acu-Link.com,2013-12-11 10:20:00,
2013-12-11 04:35:00,32.5,-57.8,30.07,West,270,0.0,-999.0,1,-99.99,,,0.00,Acu-Link.com,2013-12-11 10:35:00,
2013-12-11 04:50:00,32.4,-57.8,30.06,NNE,22,2.2,-999.0,1,-99.99,,,0.00,Acu-Link.com,2013-12-11 10:50:00,
2013-12-11 05:05:00,32.2,-57.9,30.07,North,0,1.1,-999.0,1,-99.99,,,0.00,Acu-Link.com,2013-12-11 11:05:00,
2013-12-11 05:21:00,32.2,-57.9,30.07,NNW,337,2.2,-999.0,1,-99.99,,,0.00,Acu-Link.com,2013-12-11 11:21:00,
2013-12-11 05:36:00,32.2,-57.9,30.07,WNW,292,1.1,-999.0,1,-99.99,,,0.00,Acu-Link.com,2013-12-11 11:36:00,
2013-12-11 05:51:00,32.2,-57.9,30.08,NNE,22,0.0,-999.0,1,-99.99,,,0.00,Acu-Link.com,2013-12-11 11:51:00,
2013-12-11 06:07:00,32.0,-58.1,30.08,NE,45,1.7,-999.0,1,-99.99,,,0.00,Acu-Link.com,2013-12-11 12:07:00,
2013-12-11 06:22:00,32.0,-58.1,30.09,WNW,292,0.0,-999.0,1,-99.99,,,0.00,Acu-Link.com,2013-12-11 12:22:00,
2013-12-11 06:37:00,31.8,-58.2,30.09,NNW,337,2.2,-999.0,1,-99.99,,,0.00,Acu-Link.com,2013-12-11 12:37:00,
2013-12-11 06:52:00,31.8,-58.2,30.10,NW,315,2.7,-999.0,1,-99.99,,,0.00,Acu-Link.com,2013-12-11 12:52:00,
2013-12-11 07:07:00,32.0,-58.1,30.10,NE,45,4.2,-999.0,1,-99.99,,,0.00,Acu-Link.com,2013-12-11 13:07:00,
2013-12-11 07:22:00,32.2,-57.9,30.10,NNE,22,3.7,-999.0,1,-99.99,,,0.00,Acu-Link.com,2013-12-11 13:22:00,
2013-12-11 07:37:00,32.4,-57.8,30.11,North,0,4.2,-999.0,1,-99.99,,,0.00,Acu-Link.com,2013-12-11 13:37:00,
2013-12-11 07:52:00,33.1,-57.4,30.10,NE,45,4.2,-999.0,1,-99.99,,,0.00,Acu-Link.com,2013-12-11 13:52:00,
2013-12-11 08:07:00,33.8,-56.9,30.11,NE,45,4.2,-999.0,1,-99.99,,,0.00,Acu-Link.com,2013-12-11 14:07:00,
2013-12-11 08:23:00,36.7,-55.1,30.11,NNE,22,4.7,-999.0,1,-99.99,,,0.00,Acu-Link.com,2013-12-11 14:23:00,
2013-12-11 08:38:00,37.9,-54.4,30.11,NNE,22,4.2,-999.0,1,-99.99,,,0.00,Acu-Link.com,2013-12-11 14:38:00,
2013-12-11 08:53:00,39.0,-53.7,30.12,NE,45,4.7,-999.0,1,-99.99,,,0.00,Acu-Link.com,2013-12-11 14:53:00,
2013-12-11 09:08:00,39.2,-53.6,30.12,NNE,22,2.7,-999.0,1,-99.99,,,0.00,Acu-Link.com,2013-12-11 15:08:00,
2013-12-11 09:23:00,40.1,-53.0,30.13,NNW,337,4.2,-999.0,1,-99.99,,,0.00,Acu-Link.com,2013-12-11 15:23:00,
2013-12-11 09:38:00,40.8,-52.6,30.13,NE,45,3.2,-999.0,1,-99.99,,,0.00,Acu-Link.com,2013-12-11 15:38:00,
2013-12-11 09:53:00,41.9,-51.9,30.13,ENE,67,2.7,-999.0,1,-99.99,,,0.00,Acu-Link.com,2013-12-11 15:53:00,
2013-12-11 10:09:00,42.6,-51.5,30.12,NE,45,2.7,-999.0,1,-99.99,,,0.00,Acu-Link.com,2013-12-11 16:09:00,
2013-12-11 10:24:00,42.8,-51.4,30.12,ENE,67,3.2,-999.0,1,-99.99,,,0.00,Acu-Link.com,2013-12-11 16:24:00,
2013-12-11 10:39:00,44.1,-50.6,30.11,NNE,22,2.2,-999.0,1,-99.99,,,0.00,Acu-Link.com,2013-12-11 16:39:00,
2013-12-11 10:54:00,45.1,-50.0,30.12,NNW,337,2.7,-999.0,1,-99.99,,,0.00,Acu-Link.com,2013-12-11 16:54:00,
2013-12-11 11:09:00,46.0,-49.4,30.11,NNE,22,2.7,-999.0,1,-99.99,,,0.00,Acu-Link.com,2013-12-11 17:09:00,
2013-12-11 11:25:00,46.0,-49.4,30.10,NNW,337,2.7,-999.0,1,-99.99,,,0.00,Acu-Link.com,2013-12-11 17:25:00,
2013-12-11 11:40:00,45.7,-49.6,30.10,NNW,337,4.2,-999.0,1,-99.99,,,0.00,Acu-Link.com,2013-12-11 17:40:00,
2013-12-11 11:55:00,45.5,-49.7,30.09,WSW,247,3.2,-999.0,1,-99.99,,,0.00,Acu-Link.com,2013-12-11 17:55:00,
2013-12-11 12:10:00,46.4,-49.2,30.09,West,270,2.2,-999.0,1,-99.99,,,0.00,Acu-Link.com,2013-12-11 18:10:00,
2013-12-11 12:25:00,46.2,-49.3,30.08,North,0,3.7,-999.0,1,-99.99,,,0.00,Acu-Link.com,2013-12-11 18:25:00,
2013-12-11 12:41:00,45.9,-49.5,30.07,North,0,4.2,-999.0,1,-99.99,,,0.00,Acu-Link.com,2013-12-11 18:41:00,
2013-12-11 12:56:00,46.2,-49.3,30.06,NNW,337,4.7,-999.0,1,-99.99,,,0.00,Acu-Link.com,2013-12-11 18:56:00,
2013-12-11 13:11:00,46.2,-49.3,30.07,SW,225,4.2,-999.0,1,-99.99,,,0.00,Acu-Link.com,2013-12-11 19:11:00,
2013-12-11 13:26:00,46.6,-49.0,30.07,WSW,247,2.7,-999.0,1,-99.99,,,0.00,Acu-Link.com,2013-12-11 19:26:00,
2013-12-11 13:42:00,46.9,-48.8,30.06,NNW,337,3.7,-999.0,1,-99.99,,,0.00,Acu-Link.com,2013-12-11 19:42:00,
2013-12-11 13:57:00,47.7,-48.4,30.06,NNW,337,6.3,-999.0,1,-99.99,,,0.00,Acu-Link.com,2013-12-11 19:57:00,
2013-12-11 14:12:00,47.7,-48.4,30.06,NNW,337,4.7,-999.0,1,-99.99,,,0.00,Acu-Link.com,2013-12-11 20:12:00,
2013-12-11 14:27:00,47.8,-48.3,30.06,NNE,22,5.3,-999.0,1,-99.99,,,0.00,Acu-Link.com,2013-12-11 20:27:00,
2013-12-11 14:42:00,48.0,-48.2,30.05,West,270,4.2,-999.0,1,-99.99,,,0.00,Acu-Link.com,2013-12-11 20:42:00,
2013-12-11 14:58:00,48.2,-48.1,30.05,NNE,22,6.3,-999.0,1,-99.99,,,0.00,Acu-Link.com,2013-12-11 20:58:00,
2013-12-11 15:14:00,48.0,-48.2,30.06,North,0,3.2,-999.0,1,-99.99,,,0.00,Acu-Link.com,2013-12-11 21:14:00,
2013-12-11 15:29:00,48.0,-48.2,30.06,WNW,292,4.2,-999.0,1,-99.99,,,0.00,Acu-Link.com,2013-12-11 21:29:00,
2013-12-11 15:44:00,48.2,-48.1,30.06,NNW,337,4.2,-999.0,1,-99.99,,,0.00,Acu-Link.com,2013-12-11 21:44:00,
2013-12-11 15:59:00,48.0,-48.2,30.06,North,0,6.3,-999.0,1,-99.99,,,0.00,Acu-Link.com,2013-12-11 21:59:00,
2013-12-11 16:15:00,48.0,-48.2,30.07,NE,45,3.7,-999.0,1,-99.99,,,0.00,Acu-Link.com,2013-12-11 22:15:00,
2013-12-11 16:30:00,48.0,-48.2,30.07,NNE,22,4.2,-999.0,1,-99.99,,,0.00,Acu-Link.com,2013-12-11 22:30:00,
2013-12-11 16:45:00,48.0,-48.2,30.06,NE,45,6.3,-999.0,1,-99.99,,,0.00,Acu-Link.com,2013-12-11 22:45:00,
2013-12-11 17:00:00,48.0,-48.2,30.07,North,0,3.2,-999.0,1,-99.99,,,0.00,Acu-Link.com,2013-12-11 23:00:00,
2013-12-11 17:15:00,48.0,-48.2,30.08,NNW,337,2.7,-999.0,1,-99.99,,,0.00,Acu-Link.com,2013-12-11 23:15:00,
2013-12-11 17:30:00,47.8,-48.3,30.07,NNW,337,3.2,-999.0,1,-99.99,,,0.00,Acu-Link.com,2013-12-11 23:30:00,
2013-12-11 17:46:00,47.8,-48.3,30.08,North,0,2.7,-999.0,1,-99.99,,,0.00,Acu-Link.com,2013-12-11 23:46:00,
2013-12-11 18:01:00,47.8,-48.3,30.08,NNW,337,2.2,-999.0,1,-99.99,,,0.00,Acu-Link.com,2013-12-12 00:01:00,
2013-12-11 18:16:00,47.8,-48.3,30.09,WNW,292,0.0,-999.0,1,-99.99,,,0.00,Acu-Link.com,2013-12-12 00:16:00,
2013-12-11 18:31:00,47.8,-48.3,30.09,North,0,0.0,-999.0,1,-99.99,,,0.00,Acu-Link.com,2013-12-12 00:31:00,
2013-12-11 18:46:00,47.8,-48.3,30.10,NE,45,0.0,-999.0,1,-99.99,,,0.00,Acu-Link.com,2013-12-12 00:46:00,
2013-12-11 19:01:00,46.4,-49.2,30.11,WNW,292,2.7,-999.0,1,-99.99,,,0.00,Acu-Link.com,2013-12-12 01:01:00,
2013-12-11 19:17:00,47.8,-48.3,30.11,NNE,22,3.2,-999.0,1,-99.99,,,0.00,Acu-Link.com,2013-12-12 01:17:00,
2013-12-11 19:32:00,47.7,-48.4,30.12,NW,315,2.2,-999.0,1,-99.99,,,0.00,Acu-Link.com,2013-12-12 01:32:00,
2013-12-11 19:47:00,47.8,-48.3,30.11,NNE,22,5.3,-999.0,1,-99.99,,,0.00,Acu-Link.com,2013-12-12 01:47:00,
2013-12-11 20:02:00,48.2,-48.1,30.12,NNW,337,4.2,-999.0,1,-99.99,,,0.00,Acu-Link.com,2013-12-12 02:02:00,
2013-12-11 20:17:00,48.2,-48.1,30.12,NNW,337,6.8,-999.0,1,-99.99,,,0.00,Acu-Link.com,2013-12-12 02:17:00,
2013-12-11 20:33:00,48.2,-48.1,30.13,WNW,292,4.7,-999.0,1,-99.99,,,0.00,Acu-Link.com,2013-12-12 02:33:00,
2013-12-11 20:48:00,48.0,-48.2,30.14,North,0,3.2,-999.0,1,-99.99,,,0.00,Acu-Link.com,2013-12-12 02:48:00,
2013-12-11 21:03:00,47.7,-48.4,30.13,NNW,337,5.3,-999.0,1,-99.99,,,0.00,Acu-Link.com,2013-12-12 03:03:00,
2013-12-11 21:18:00,47.8,-48.3,30.13,NNW,337,7.3,-999.0,1,-99.99,,,0.00,Acu-Link.com,2013-12-12 03:18:00,
2013-12-11 21:34:00,48.0,-48.2,30.14,North,0,6.8,-999.0,1,-99.99,,,0.00,Acu-Link.com,2013-12-12 03:34:00,
2013-12-11 21:49:00,47.8,-48.3,30.14,NNW,337,6.8,-999.0,1,-99.99,,,0.00,Acu-Link.com,2013-12-12 03:49:00,
2013-12-11 22:04:00,47.5,-48.5,30.14,NW,315,6.3,-999.0,1,-99.99,,,0.00,Acu-Link.com,2013-12-12 04:04:00,
2013-12-11 22:19:00,47.1,-48.7,30.15,NNW,337,6.8,-999.0,1,-99.99,,,0.00,Acu-Link.com,2013-12-12 04:19:00,
2013-12-11 22:34:00,46.4,-49.2,30.15,NNW,337,5.3,-999.0,1,-99.99,,,0.00,Acu-Link.com,2013-12-12 04:34:00,
2013-12-11 22:50:00,45.5,-49.7,30.16,NNW,337,4.2,-999.0,1,-99.99,,,0.00,Acu-Link.com,2013-12-12 04:50:00,
2013-12-11 23:05:00,45.1,-50.0,30.16,NNE,22,5.3,-999.0,1,-99.99,,,0.00,Acu-Link.com,2013-12-12 05:05:00,
2013-12-11 23:20:00,44.6,-50.3,30.15,NNE,22,6.3,-999.0,1,-99.99,,,0.00,Acu-Link.com,2013-12-12 05:20:00,
2013-12-11 23:35:00,43.7,-50.8,30.15,NNE,22,2.7,-999.0,1,-99.99,,,0.00,Acu-Link.com,2013-12-12 05:35:00,
2013-12-11 23:50:00,42.8,-51.4,30.15,NW,315,4.2,-999.0,1,-99.99,,,0.00,Acu-Link.com,2013-12-12 05:50:00,